Погода Березово

Погода Березово : погода сейчас, прогноз погоды и архив. Всё, что Вы хотите узнать о погоде Березово!

Поиск расширенной информации на нашем сайте:

Другие новости

Новости СМИ2

Главная страница сайта

Новости сайта

03.07.2017

Напоминаем, что на нашем специализированном сайте Метеоцентр.Азия вы можете получить высокодетализированные автоматические прогнозы погоды по пунктам России, СНГ и мира в авиационном формате (включающие направление и скорость ветра, видимость, явления погоды, количество и форму облачности, нижнюю и верхнюю границу облачности).


Погода Березово - сегодня

Время (UTC), дата Ветер
(°,м/с) 
Видим.   Явления Облачность Т
(°С)
Тd
(°С)
f(%) Тe
(°С)
Pmin
(гПа)
dP
(гПа)
Po
(мм)
O2
(г/м3)
Тmin Tmax R s Состояние
почвы
00 17.10.17 170 (Ю) 20000 м  {снег}  10/6 420 м средняя 
[Sc|Ac und]
+1.8 +0.2 89 1017.5  -2.2  760  304           
03 17.10.17 180 (Ю) 20000 м    9/0 средняя 
[Ac und]
+1.5 -0.7 85 -1  1015.4  -2.1  758  304  -0.3    0.0     
06 17.10.17 160 (Ю) 20000 м    10/0 средняя 
[Ac As]
+2.2 -0.8 81 1013.8  -1.6  757  303           
09 17.10.17 170 (Ю) 20000 м    10/0 средняя 
[Ac As]
+3.4 -1.3 71 +2  1012  -1.8  756  301           
12 17.10.17 160 (Ю) 10 км  слаб. дождь  10/6 660 м средняя 
[Sc|As op]
+3.9 +0.8 80 +2  1009.3  -2.7  754  299           
15 17.10.17 160 (Ю) 10 км  слаб. дождь  10/8 750 м средняя 
[Sc|As op]
+4.1 +2.6 90 +3  1007.1  -2.1  752  298    +4.4  0.6     
18 17.10.17 170 (Ю) 20000 м  {дождь}  10/0 средняя 
[Ac As]
+4.9 +1.9 81 +4  1005.3  -1.8  751  297           
21 17.10.17 140 (ЮВ) 20000 м    10/0 средняя, верхняя 
[Ac trans|Ci fib]
+3.5 +0.3 80 +3  1003.4  -1.9  750  298           
00 18.10.17 150 (ЮВ) 20000 м    9/0 средняя 
[Ac und]
+4.1 +1 80 +3  1000.9  -2.5  748  297           
03 18.10.17 160 (Ю) 20000 м  в посл. час дождь  10/0 средняя 
[Ac As]
+3.2 -0.6 76 +1  998.8  -2.1  746  297  +2    0.0     
06 18.10.17 150 (ЮВ) 10 км  слаб. дождь  10/8 330 м средняя 
[Sc|As op]
+2.1 +1.3 94 997.7  -1.1  745  298           
09 18.10.17 170 (Ю) 4000 м  слаб. дождь  10/8 210 м средняя 
[Frnb|As op]
+2.3 +1.8 96 996.5  -1.2  744  297           
12 18.10.17 180 (Ю) 4000 м  слаб. ливневой снег{дождь}  10/9 180 м кучево-дожд., средняя 
[Cb cap|Ac As]
+1.7 +1.2 96 -1  995.9  -0.6  744  298           
15 18.10.17 180 (Ю) 20000 м  {ливн. осадки}  10/8 120 м средняя 
[St|Ac und]
+2.1 +1.6 96 995.2  -0.7  743  297    +2.5     
18 18.10.17 180 (Ю) 20000 м  {ливн. осадки}  10/10 120 м 
[Frnb]
+3.3 +2.8 97 +2  995  -0.2  743  295           
21 18.10.17 190 (Ю) 20000 м    10/10 180 м 
[Frnb]
+2.5 +1.7 94 995.5  0.5  744  297           
00 19.10.17 190 (Ю) 20000 м    10/10 100 м 
[St]
+0.8 +0.5 98 -2  995.8  0.3  744  299           
03 19.10.17 190 (Ю) 2000 м  дымка  10/10 60 м 
[St]
+0.4 -0.2 96 -2  996.3  0.5  744  299  +0.4         
06 19.10.17 190 (Ю) 20000 м    10/10 150 м 
[St]
+1.5 +0.7 94 -1  996.3  744  298           
09 19.10.17 190 (Ю) 20000 м    10/10 210 м 
[St]
+2.3 +1.3 93 +1  996.1  -0.2  744  297           
12 19.10.17 130 (ЮВ) 20000 м    10/10 360 м 
[Sc]
+3.1 +1.5 89 +3  995.7  -0.4  744  296           
15 19.10.17 130 (ЮВ) 20000 м    10/10 450 м 
[Sc]
+2.8 +1.5 91 +1  995  -0.7  743  296    +3.1       
18 19.10.17 100 (В) 20000 м    10/10 400 м 
[Sc]
+2.5 +1.5 93 +2  993.9  -1.1  742  296           
21 19.10.17 080 (В) 10 км  слаб. дождь  10/8 420 м средняя 
[Sc|As op]
+2.4 +1.4 93 +1  992.2  -1.7  741  296           
00 20.10.17 060 (СВ) 20000 м  {дождь}  10/9 210 м средняя 
[St|Ac As]
+2.7 +1.9 94 +1  991.1  -1.1  740  295           
Время (UTC), дата Ветер
(°,м/с) 
Видим.   Явления Облачность Т
(°С)
Тd
(°С)
f(%) Тe
(°С)
Pmin
(гПа)
dP
(гПа)
Po
(мм)
O2
(г/м3)
Тmin Tmax R s Состояние
почвы

Для получения пояснительной информации подведите курсор к названию столбца.

ПОГОДА Березово - архив

Всё, что Вы хотите узнать о погоде Березово - удобно и подробно!

Выберите нужную дату (начиная с 1 января 2015* года) и нажмите кнопку "Найти".
Будут отображены архивные сводки погоды по пункту Березово, начиная с указанной даты.


Отображать данные в формате CSV (для использования в таблицах Excel)


Внимание! Наш архив погоды предназначен исключительно для личного некоммерческого использования в познавательных целях. Если Вам необходимы официальные справки о состоянии погоды (для производственных, юридических, коммерческих и т.п. целей), обращайтесь в органы Росгидромета.

*Примечание: данная дата относится к архиву по метеостанциям СССР (Россия, СНГ, Балтия).
Архив по метеостанциям Зарубежной Европы и Азии (кроме Китая) хранится 10 дней, по другим регионам земного шара (Китай, Африка, Америка, Австралия, Океания) - 1 день.

Березово - район местоположения метеостанции


Название, широта, долгота, высота метеостанции:
Березово 63.9°ш. 65.1°д. 32 м над ур. моря [Российская Федерация]

Дополнительная информация

В oтличие oт бoльшинства пoгoдных сайтoв мы публикуем пoдрoбную метеoинфoрмацию в детальнoм прoфессиoнальнoм фoрмате.

Характеристики температуры и влажнoсти вoздуха измеряются на высoте 2 м в тени вдали oт зданий и деревьев.
Скoрoсть ветра измеряется на высoте 10 м (на урoвне рoста челoвека скoрoсть ветра ниже в 1.5-2 раза). Если метеoстанция нахoдится в гoрoде или в лесу, тo скoрoсть ветра занижена на 2-4 м/с пo сравнению с oткрытым местoм. Скoрoсть ветра над акватoриями крупных рек и oзёр, а также на вершинах хoлмoв на 2-5 м/с выше, чем в oбычных услoвиях.
Атмoсфернoе давление в разных тoчках местнoсти мoжет значительнo oтличаться oт давления на метеoстанции, в зависимoсти oт услoвий рельефа (при пoдъёме на 10 м давление пoнижается примернo на 1 мм рт.ст.).